Voltar ao catálogo

FENGYUN 1C DEB

AtivoPO
NORAD 31427·DEBRIS·🇨🇳 China

Lançado May 10, 1999 de Taiyuan Satellite Launch Center

Loading…

Próximas Passagens (próximas 24 horas)

TLE

AtualizadoSource: Space-Track

Época: Sep 13, 2026, 07:20 UTC

1 31427U 99025BTP 26256.30623067  .00007397  00000-0  13871-2 0  9998
2 31427  98.6850  23.9589 0027899 248.6564 111.1659 14.64821985  8944

Acompanhe FENGYUN 1C DEB em tempo real com AllMySat

Download on the App Store